User: anonymous   Login
Location: Lima
(44.6384°N, 112.5920°W)
Time: 05:19:22
(UTC+00:00)
Language:

SEEDS - Orbit

View from above orbital plane
View from above orbital plane
View from above satellite
View from above satellite

Ground track
Ground track

The orbit data is extracted from the following two-line orbital elements,

1 32791U 08021J   24106.42512613  .00012371  00000-0  94344-3 0  9991
2 32791  97.6855  78.0431 0007005 135.1139 225.0653 15.02145631867093
Epoch (UTC): 15 April 2024 10:12:10
Eccentricity: 0.0007005
inclination: 97.6855°
perigee height: 555 km
apogee height: 565 km
right ascension of ascending node: 78.0431°
argument of perigee: 135.1139°
revolutions per day: 15.02145631
mean anomaly at epoch: 225.0653°
orbit number at epoch: 86709

The dashed part of the orbit path shows where the satellite is in the earth's shadow,  

DLR